Powrót do katalogu

COSMOS 917 DEB

LostHEO
NORAD 35504·DEBRIS·🇷🇺 Russia

Wystrzelony Jun 16, 1977 z Plesetsk Cosmodrome

Loading…

Następne Przeloty (najbliższe 24 godziny)

TLE

NieaktualneSource: Space-Track

Epoka: Jun 6, 2024, 21:31 UTC

1 35504U 77047R   24158.89656405 -.00000709  00000-0  00000+0 0  9991
2 35504  70.7403  85.9722 5985290 182.7987 171.1968  2.00612470117995

Śledź COSMOS 917 DEB w czasie rzeczywistym z AllMySat

Download on the App Store